sat.trackr.live / text

‹ back to catalog

STARLINK-32474

NORAD 61260 · 2024-175T

PAYLOAD ACTIVE UNKNOWN

§ Identity

Operator
Country
US
Launch date
2024-09-25
Launch site
AFWTR
Launch vehicle
Mass (kg)
RCS (m²)

Purposes: comms

External: N2YO · Heavens-Above · Gunter

§ Orbital elements

Epoch: 2026-09-21T18:56:08.323872Z

Period
93.85 min
Inclination
53.1589°
Eccentricity
0.0001830
Mean motion
15.34393036 rev/d
Perigee alt
461.5 km
Apogee alt
464.0 km
Semi-major
6,840.9 km
B*
3.7165e-5
RAAN
359.8875°
Arg perigee
90.4406°
Mean anomaly
269.6806°
Rev number
11,152

§ Raw data

STARLINK-324741 61260U 24175T   26264.78898523  .00000879  00000+0  37165-4 0  99932 61260  53.1589 359.8875 0001830  90.4406 269.6806 15.34393036111522

JSON: /api/v1/satellites/61260 · /tle

For live sub-satellite position, see the globe view (requires WebGL).

§ Visibility from observer

Set your observer location to see the next 7 days of passes ≥ 10°. The values pass through the URL so the page stays shareable.

No JS? Fill the form by hand. The geolocation button needs JavaScript.